Time,TemperatureF,DewpointF,PressureIn,WindDirection,WindDirectionDegrees,WindSpeedMPH,WindSpeedGustMPH,Humidity,HourlyPrecipIn,Conditions,Clouds,dailyrainin,SoftwareType,DateUTC
2013-01-13 00:01:00,25.0,16.0,29.92,SE,133,3.0,6.0,67,0.00,,,0.00,,2013-01-13 08:01:00,
2013-01-13 00:11:00,25.0,16.0,29.92,SE,133,3.0,6.0,67,0.00,,,0.00,,2013-01-13 08:11:00,
2013-01-13 00:22:00,25.0,15.0,29.92,SE,129,4.0,8.0,65,0.00,,,0.00,,2013-01-13 08:22:00,
2013-01-13 00:32:00,26.0,16.0,29.92,SE,124,4.0,7.0,65,0.00,,,0.00,,2013-01-13 08:32:00,
2013-01-13 00:42:00,26.0,16.0,29.92,SE,124,4.0,7.0,65,0.00,,,0.00,,2013-01-13 08:42:00,
2013-01-13 00:52:00,26.0,16.0,29.92,SE,129,5.0,8.0,64,0.00,,,0.00,,2013-01-13 08:52:00,
2013-01-13 01:02:00,27.0,15.0,29.92,East,100,3.0,7.0,61,0.00,,,0.00,,2013-01-13 09:02:00,
2013-01-13 01:11:00,27.0,16.0,29.92,ESE,104,2.0,5.0,62,0.00,,,0.00,,2013-01-13 09:11:00,
2013-01-13 01:22:00,27.0,16.0,29.92,ESE,104,2.0,5.0,62,0.00,,,0.00,,2013-01-13 09:22:00,
2013-01-13 01:32:00,26.0,15.0,29.93,North,0,0.0,6.0,62,0.00,,,0.00,,2013-01-13 09:32:00,
2013-01-13 01:42:00,26.0,15.0,29.93,North,0,0.0,6.0,62,0.00,,,0.00,,2013-01-13 09:42:00,
2013-01-13 01:52:00,26.0,15.0,29.93,ESE,106,1.0,5.0,62,0.00,,,0.00,,2013-01-13 09:52:00,
2013-01-13 02:02:00,26.0,15.0,29.93,ESE,106,1.0,4.0,63,0.00,,,0.00,,2013-01-13 10:02:00,
2013-01-13 02:11:00,26.0,15.0,29.93,ESE,106,1.0,4.0,63,0.00,,,0.00,,2013-01-13 10:11:00,
2013-01-13 02:22:00,26.0,16.0,29.93,East,95,3.0,6.0,64,0.00,,,0.00,,2013-01-13 10:22:00,
2013-01-13 02:32:00,26.0,15.0,29.93,East,81,4.0,8.0,63,0.00,,,0.00,,2013-01-13 10:32:00,
2013-01-13 02:42:00,26.0,15.0,29.93,East,81,4.0,8.0,63,0.00,,,0.00,,2013-01-13 10:42:00,
2013-01-13 02:52:00,26.0,14.0,29.93,East,91,4.0,8.0,61,0.00,,,0.00,,2013-01-13 10:52:00,
2013-01-13 03:02:00,27.0,15.0,29.93,East,87,5.0,7.0,60,0.00,,,0.00,,2013-01-13 11:02:00,
2013-01-13 03:11:00,27.0,15.0,29.93,East,87,5.0,7.0,60,0.00,,,0.00,,2013-01-13 11:11:00,
2013-01-13 03:22:00,26.0,14.0,29.93,East,87,4.0,8.0,61,0.00,,,0.00,,2013-01-13 11:22:00,
2013-01-13 03:32:00,26.0,15.0,29.93,East,95,5.0,7.0,62,0.00,,,0.00,,2013-01-13 11:32:00,
2013-01-13 03:42:00,26.0,15.0,29.93,East,95,5.0,7.0,62,0.00,,,0.00,,2013-01-13 11:42:00,
2013-01-13 03:52:00,25.0,14.0,29.92,ESE,109,2.0,7.0,63,0.00,,,0.00,,2013-01-13 11:52:00,
2013-01-13 04:02:00,25.0,15.0,29.92,ESE,122,5.0,8.0,64,0.00,,,0.00,,2013-01-13 12:02:00,
2013-01-13 04:11:00,25.0,15.0,29.92,ESE,122,5.0,8.0,64,0.00,,,0.00,,2013-01-13 12:11:00,
2013-01-13 04:22:00,25.0,15.0,29.92,SE,124,6.0,11.0,65,0.00,,,0.00,,2013-01-13 12:22:00,
2013-01-13 04:32:00,25.0,15.0,29.92,ESE,104,1.0,7.0,65,0.00,,,0.00,,2013-01-13 12:32:00,
2013-01-13 04:42:00,25.0,15.0,29.92,ESE,104,1.0,7.0,65,0.00,,,0.00,,2013-01-13 12:42:00,
2013-01-13 04:52:00,25.0,15.0,29.92,East,91,4.0,7.0,65,0.00,,,0.00,,2013-01-13 12:52:00,
2013-01-13 05:02:00,25.0,15.0,29.92,East,99,5.0,7.0,66,0.00,,,0.00,,2013-01-13 13:02:00,
2013-01-13 05:11:00,25.0,15.0,29.92,East,99,5.0,7.0,66,0.00,,,0.00,,2013-01-13 13:11:00,
2013-01-13 05:22:00,25.0,15.0,29.92,East,98,5.0,8.0,65,0.00,,,0.00,,2013-01-13 13:22:00,
2013-01-13 05:32:00,25.0,15.0,29.93,ENE,78,4.0,7.0,64,0.00,,,0.00,,2013-01-13 13:32:00,
2013-01-13 05:42:00,25.0,15.0,29.93,ENE,78,4.0,7.0,64,0.00,,,0.00,,2013-01-13 13:42:00,
2013-01-13 05:53:00,25.0,15.0,29.94,East,81,1.0,4.0,65,0.00,,,0.00,,2013-01-13 13:53:00,
2013-01-13 06:02:00,25.0,16.0,29.94,East,84,2.0,7.0,67,0.00,,,0.00,,2013-01-13 14:02:00,
2013-01-13 06:12:00,25.0,16.0,29.94,East,84,2.0,7.0,67,0.00,,,0.00,,2013-01-13 14:12:00,
2013-01-13 06:22:00,25.0,16.0,29.95,East,86,2.0,6.0,67,0.00,,,0.00,,2013-01-13 14:22:00,
2013-01-13 06:32:00,25.0,16.0,29.96,ESE,104,2.0,6.0,68,0.00,,,0.00,,2013-01-13 14:32:00,
2013-01-13 06:42:00,25.0,16.0,29.96,ESE,104,2.0,6.0,68,0.00,,,0.00,,2013-01-13 14:42:00,
2013-01-13 06:53:00,25.0,16.0,29.96,North,0,0.0,8.0,68,0.00,,,0.00,,2013-01-13 14:53:00,
2013-01-13 07:02:00,25.0,16.0,29.96,ESE,114,1.0,5.0,68,0.00,,,0.00,,2013-01-13 15:02:00,
2013-01-13 07:12:00,25.0,16.0,29.96,ESE,114,1.0,5.0,68,0.00,,,0.00,,2013-01-13 15:12:00,
2013-01-13 07:22:00,24.0,14.0,29.97,SE,130,5.0,8.0,66,0.00,,,0.00,,2013-01-13 15:22:00,
2013-01-13 07:33:00,24.0,13.0,29.98,SE,126,4.0,7.0,63,0.00,,,0.00,,2013-01-13 15:33:00,
2013-01-13 07:42:00,24.0,13.0,29.98,SE,126,4.0,7.0,63,0.00,,,0.00,,2013-01-13 15:42:00,
2013-01-13 07:52:00,25.0,13.0,29.98,ESE,123,5.0,8.0,60,0.00,,,0.00,,2013-01-13 15:52:00,
2013-01-13 08:02:00,28.0,14.0,29.96,ESE,103,6.0,9.0,55,0.00,,,0.00,,2013-01-13 16:02:00,
2013-01-13 08:11:00,28.0,14.0,29.96,ESE,103,6.0,9.0,55,0.00,,,0.00,,2013-01-13 16:11:00,
2013-01-13 08:22:00,29.0,14.0,29.96,ESE,112,6.0,11.0,52,0.00,,,0.00,,2013-01-13 16:22:00,
2013-01-13 08:33:00,30.0,13.0,29.97,ESE,104,6.0,11.0,49,0.00,,,0.00,,2013-01-13 16:33:00,
2013-01-13 08:42:00,30.0,13.0,29.97,ESE,104,6.0,11.0,49,0.00,,,0.00,,2013-01-13 16:42:00,
2013-01-13 08:53:00,31.0,13.0,29.97,East,84,7.0,10.0,46,0.00,,,0.00,,2013-01-13 16:53:00,
2013-01-13 09:02:00,31.0,13.0,29.98,ENE,64,7.0,13.0,46,0.00,,,0.00,,2013-01-13 17:02:00,
2013-01-13 09:12:00,31.0,13.0,29.98,ENE,64,7.0,13.0,46,0.00,,,0.00,,2013-01-13 17:12:00,
2013-01-13 09:22:00,32.0,14.0,29.98,ESE,109,6.0,10.0,47,0.00,,,0.00,,2013-01-13 17:22:00,
2013-01-13 09:32:00,32.0,13.0,29.98,East,99,6.0,11.0,44,0.00,,,0.00,,2013-01-13 17:32:00,
2013-01-13 09:42:00,32.0,13.0,29.98,East,99,6.0,11.0,44,0.00,,,0.00,,2013-01-13 17:42:00,
2013-01-13 09:52:00,33.0,13.0,29.98,East,85,6.0,13.0,43,0.00,,,0.00,,2013-01-13 17:52:00,
2013-01-13 10:02:00,34.0,13.0,29.97,ESE,107,11.0,14.0,41,0.00,,,0.00,,2013-01-13 18:02:00,
2013-01-13 10:11:00,34.0,13.0,29.97,ESE,107,11.0,14.0,41,0.00,,,0.00,,2013-01-13 18:11:00,
2013-01-13 10:22:00,34.0,14.0,29.97,ESE,110,8.0,13.0,44,0.00,,,0.00,,2013-01-13 18:22:00,
2013-01-13 10:32:00,35.0,15.0,29.96,ESE,110,7.0,13.0,43,0.00,,,0.00,,2013-01-13 18:32:00,
2013-01-13 10:42:00,35.0,15.0,29.96,ESE,110,7.0,13.0,43,0.00,,,0.00,,2013-01-13 18:42:00,
2013-01-13 10:52:00,35.0,15.0,29.95,ENE,75,5.0,12.0,43,0.00,,,0.00,,2013-01-13 18:52:00,
2013-01-13 11:02:00,36.0,16.0,29.95,SE,129,8.0,13.0,44,0.00,,,0.00,,2013-01-13 19:02:00,
2013-01-13 11:11:00,36.0,16.0,29.95,SE,129,8.0,13.0,44,0.00,,,0.00,,2013-01-13 19:11:00,
2013-01-13 11:22:00,36.0,16.0,29.94,ESE,120,4.0,11.0,43,0.00,,,0.00,,2013-01-13 19:22:00,
2013-01-13 11:32:00,37.0,17.0,29.93,ESE,110,5.0,14.0,44,0.00,,,0.00,,2013-01-13 19:32:00,
2013-01-13 11:53:00,37.0,16.0,29.92,East,85,5.0,9.0,41,0.00,,,0.00,,2013-01-13 19:53:00,
2013-01-13 12:02:00,37.0,16.0,29.92,ENE,63,4.0,12.0,41,0.00,,,0.00,,2013-01-13 20:02:00,
2013-01-13 12:11:00,37.0,16.0,29.92,ENE,63,4.0,12.0,41,0.00,,,0.00,,2013-01-13 20:11:00,
2013-01-13 12:22:00,38.0,18.0,29.91,ESE,111,3.0,10.0,44,0.00,,,0.00,,2013-01-13 20:22:00,
2013-01-13 12:32:00,39.0,17.0,29.89,SE,135,2.0,9.0,40,0.00,,,0.00,,2013-01-13 20:32:00,
2013-01-13 12:42:00,39.0,17.0,29.89,SE,135,2.0,9.0,40,0.00,,,0.00,,2013-01-13 20:42:00,
2013-01-13 12:53:00,39.0,17.0,29.88,East,85,1.0,10.0,41,0.00,,,0.00,,2013-01-13 20:53:00,
2013-01-13 13:02:00,40.0,18.0,29.88,ESE,120,4.0,7.0,40,0.00,,,0.00,,2013-01-13 21:02:00,
2013-01-13 13:12:00,40.0,18.0,29.88,ESE,120,4.0,7.0,40,0.00,,,0.00,,2013-01-13 21:12:00,
2013-01-13 13:22:00,40.0,18.0,29.87,East,101,2.0,8.0,40,0.00,,,0.00,,2013-01-13 21:22:00,
2013-01-13 13:32:00,40.0,15.0,29.88,ENE,77,2.0,7.0,36,0.00,,,0.00,,2013-01-13 21:32:00,
2013-01-13 13:42:00,40.0,15.0,29.88,ENE,77,2.0,7.0,36,0.00,,,0.00,,2013-01-13 21:42:00,
2013-01-13 13:53:00,39.0,17.0,29.87,SSW,203,3.0,9.0,40,0.00,,,0.00,,2013-01-13 21:53:00,
2013-01-13 14:02:00,39.0,17.0,29.87,North,353,7.0,11.0,40,0.00,,,0.00,,2013-01-13 22:02:00,
2013-01-13 14:11:00,39.0,17.0,29.87,North,353,7.0,11.0,40,0.00,,,0.00,,2013-01-13 22:11:00,
2013-01-13 14:22:00,39.0,17.0,29.87,NW,311,6.0,13.0,41,0.00,,,0.00,,2013-01-13 22:22:00,
2013-01-13 14:32:00,39.0,18.0,29.87,WNW,295,8.0,15.0,42,0.00,,,0.00,,2013-01-13 22:32:00,
2013-01-13 14:42:00,39.0,18.0,29.87,WNW,295,8.0,15.0,42,0.00,,,0.00,,2013-01-13 22:42:00,
2013-01-13 14:52:00,39.0,19.0,29.86,SW,226,4.0,10.0,44,0.00,,,0.00,,2013-01-13 22:52:00,
2013-01-13 15:02:00,38.0,18.0,29.86,West,279,6.0,13.0,44,0.00,,,0.00,,2013-01-13 23:02:00,
2013-01-13 15:12:00,38.0,18.0,29.86,West,279,6.0,13.0,44,0.00,,,0.00,,2013-01-13 23:12:00,
2013-01-13 15:22:00,37.0,18.0,29.87,WNW,301,10.0,15.0,45,0.00,,,0.00,,2013-01-13 23:22:00,
2013-01-13 15:32:00,38.0,19.0,29.87,WNW,300,5.0,16.0,45,0.00,,,0.00,,2013-01-13 23:32:00,
2013-01-13 15:42:00,38.0,19.0,29.87,WNW,300,5.0,16.0,45,0.00,,,0.00,,2013-01-13 23:42:00,
2013-01-13 15:53:00,37.0,18.0,29.87,West,265,6.0,15.0,46,0.00,,,0.00,,2013-01-13 23:53:00,
2013-01-13 16:02:00,36.0,17.0,29.90,WSW,246,7.0,14.0,46,0.00,,,0.00,,2013-01-14 00:02:00,
2013-01-13 16:12:00,36.0,17.0,29.90,WSW,246,7.0,14.0,46,0.00,,,0.00,,2013-01-14 00:12:00,
2013-01-13 16:22:00,35.0,19.0,29.90,West,281,6.0,13.0,51,0.00,,,0.00,,2013-01-14 00:22:00,
2013-01-13 16:32:00,35.0,23.0,29.89,WSW,250,10.0,16.0,60,0.00,,,0.00,,2013-01-14 00:32:00,
2013-01-13 16:52:00,33.0,23.0,29.89,West,266,9.0,13.0,66,0.00,,,0.00,,2013-01-14 00:52:00,
2013-01-13 17:02:00,32.0,23.0,29.89,West,263,9.0,13.0,69,0.00,,,0.00,,2013-01-14 01:02:00,
2013-01-13 17:12:00,32.0,23.0,29.89,West,263,9.0,13.0,69,0.00,,,0.00,,2013-01-14 01:12:00,
2013-01-13 17:22:00,32.0,24.0,29.89,WSW,249,10.0,15.0,72,0.00,,,0.00,,2013-01-14 01:22:00,
2013-01-13 17:32:00,31.0,24.0,29.88,West,259,9.0,13.0,74,0.00,,,0.00,,2013-01-14 01:32:00,
2013-01-13 17:42:00,31.0,24.0,29.88,West,259,9.0,13.0,74,0.00,,,0.00,,2013-01-14 01:42:00,
2013-01-13 17:52:00,30.0,23.0,29.89,West,262,6.0,12.0,75,0.00,,,0.00,,2013-01-14 01:52:00,
2013-01-13 18:02:00,30.0,23.0,29.89,SW,229,4.0,11.0,76,0.00,,,0.00,,2013-01-14 02:02:00,
2013-01-13 18:11:00,30.0,24.0,29.90,WSW,247,6.0,10.0,77,0.00,,,0.00,,2013-01-14 02:11:00,
2013-01-13 18:22:00,30.0,24.0,29.90,WSW,247,6.0,10.0,77,0.00,,,0.00,,2013-01-14 02:22:00,
2013-01-13 18:32:00,30.0,24.0,29.91,West,270,4.0,10.0,77,0.00,,,0.00,,2013-01-14 02:32:00,
2013-01-13 18:42:00,30.0,24.0,29.91,West,270,4.0,10.0,77,0.00,,,0.00,,2013-01-14 02:42:00,
2013-01-13 18:52:00,30.0,24.0,29.89,West,263,5.0,8.0,78,0.00,,,0.00,,2013-01-14 02:52:00,
2013-01-13 19:02:00,30.0,24.0,29.89,West,260,3.0,7.0,78,0.00,,,0.00,,2013-01-14 03:02:00,
2013-01-13 19:12:00,30.0,24.0,29.89,West,260,3.0,7.0,78,0.00,,,0.00,,2013-01-14 03:12:00,
2013-01-13 19:22:00,30.0,24.0,29.90,North,0,0.0,3.0,78,0.00,,,0.00,,2013-01-14 03:22:00,
2013-01-13 19:32:00,30.0,24.0,29.90,North,0,0.0,0.0,79,0.00,,,0.00,,2013-01-14 03:32:00,
2013-01-13 19:42:00,30.0,24.0,29.90,North,0,0.0,0.0,79,0.00,,,0.00,,2013-01-14 03:42:00,
2013-01-13 19:52:00,29.0,22.0,29.90,NW,308,3.0,5.0,76,0.00,,,0.00,,2013-01-14 03:52:00,
2013-01-13 20:02:00,29.0,16.0,29.90,North,0,0.0,5.0,59,0.00,,,0.00,,2013-01-14 04:02:00,
2013-01-13 20:11:00,29.0,16.0,29.90,North,0,0.0,5.0,59,0.00,,,0.00,,2013-01-14 04:11:00,
2013-01-13 20:22:00,29.0,19.0,29.90,North,0,0.0,1.0,66,0.00,,,0.00,,2013-01-14 04:22:00,
2013-01-13 20:32:00,29.0,19.0,29.90,North,0,0.0,2.0,66,0.00,,,0.00,,2013-01-14 04:32:00,
2013-01-13 20:42:00,29.0,19.0,29.90,North,0,0.0,2.0,66,0.00,,,0.00,,2013-01-14 04:42:00,
2013-01-13 20:52:00,28.0,15.0,29.91,NNE,33,1.0,3.0,58,0.00,,,0.00,,2013-01-14 04:52:00,
2013-01-13 21:03:00,28.0,17.0,29.90,North,0,0.0,0.0,64,0.00,,,0.00,,2013-01-14 05:03:00,
2013-01-13 21:12:00,28.0,17.0,29.90,North,0,0.0,0.0,64,0.00,,,0.00,,2013-01-14 05:12:00,
2013-01-13 21:22:00,28.0,15.0,29.91,NNE,33,1.0,4.0,57,0.00,,,0.00,,2013-01-14 05:22:00,
2013-01-13 21:32:00,28.0,16.0,29.91,North,0,0.0,3.0,60,0.00,,,0.00,,2013-01-14 05:32:00,
2013-01-13 21:42:00,28.0,16.0,29.91,North,0,0.0,3.0,60,0.00,,,0.00,,2013-01-14 05:42:00,
2013-01-13 21:52:00,28.0,14.0,29.91,ENE,58,3.0,6.0,55,0.00,,,0.00,,2013-01-14 05:52:00,
2013-01-13 22:02:00,28.0,14.0,29.92,East,91,4.0,7.0,55,0.00,,,0.00,,2013-01-14 06:02:00,
2013-01-13 22:11:00,28.0,14.0,29.92,East,91,4.0,7.0,55,0.00,,,0.00,,2013-01-14 06:11:00,
2013-01-13 22:22:00,28.0,14.0,29.93,East,88,5.0,10.0,55,0.00,,,0.00,,2013-01-14 06:22:00,
2013-01-13 22:32:00,28.0,14.0,29.93,East,87,6.0,9.0,54,0.00,,,0.00,,2013-01-14 06:32:00,
2013-01-13 22:42:00,28.0,14.0,29.93,East,87,6.0,9.0,54,0.00,,,0.00,,2013-01-14 06:42:00,
2013-01-13 22:52:00,28.0,13.0,29.93,East,88,6.0,9.0,53,0.00,,,0.00,,2013-01-14 06:52:00,
2013-01-13 23:01:00,28.0,12.0,29.93,East,89,6.0,12.0,51,0.00,,,0.00,,2013-01-14 07:01:00,
2013-01-13 23:11:00,28.0,12.0,29.93,East,89,6.0,12.0,51,0.00,,,0.00,,2013-01-14 07:11:00,
2013-01-13 23:22:00,28.0,13.0,29.94,East,94,6.0,13.0,52,0.00,,,0.00,,2013-01-14 07:22:00,
2013-01-13 23:32:00,27.0,12.0,29.95,East,98,6.0,11.0,53,0.00,,,0.00,,2013-01-14 07:32:00,
2013-01-13 23:42:00,27.0,12.0,29.95,East,98,6.0,11.0,53,0.00,,,0.00,,2013-01-14 07:42:00,
2013-01-13 23:52:00,27.0,13.0,29.95,East,88,7.0,11.0,54,0.00,,,0.00,,2013-01-14 07:52:00,